| time (UTC) | temp C | wind direction | speed KPH | gust KPH | rain 1hr cm | rain 24hr cm | rain mn cm | humidity % | barometer mb |
| 20260504002513 | 22 | 26 | 6.4 | 16.1 | 0.00 | 0.00 | 0.00 | 45 | 1008.6 |
| 20260504002013 | 22 | 9 | 6.4 | 19.3 | 0.00 | 0.00 | 0.00 | 45 | 1008.6 |
| 20260504001512 | 22 | 58 | 6.4 | 22.5 | 0.00 | 0.00 | 0.00 | 46 | 1008.6 |
| 20260504001012 | 21 | 27 | 6.4 | 22.5 | 0.00 | 0.00 | 0.00 | 47 | 1008.7 |
| 20260504000513 | 21 | 12 | 6.4 | 17.7 | 0.00 | 0.00 | 0.00 | 47 | 1008.7 |
| 20260504000011 | 21 | 37 | 8.0 | 19.3 | 0.00 | 0.00 | 0.00 | 47 | 1008.7 |
| 20260503235509 | 21 | 38 | 6.4 | 19.3 | 0.00 | 0.00 | 0.00 | 48 | 1008.8 |
| 20260503235009 | 21 | 59 | 3.2 | 14.5 | 0.00 | 0.00 | 0.00 | 49 | 1008.8 |
| 20260503234510 | 21 | 75 | 3.2 | 14.5 | 0.00 | 0.00 | 0.00 | 49 | 1008.9 |
| 20260503234008 | 21 | 10 | 4.8 | 14.5 | 0.00 | 0.00 | 0.00 | 51 | 1008.9 |
| 20260503233506 | 21 | 5 | 3.2 | 14.5 | 0.00 | 0.00 | 0.00 | 52 | 1009.0 |
| 20260503233005 | 21 | 57 | 3.2 | 16.1 | 0.00 | 0.00 | 0.00 | 53 | 1009.0 |
| 20260503232505 | 21 | 26 | 4.8 | 16.1 | 0.00 | 0.00 | 0.00 | 54 | 1009.1 |
| 20260503232004 | 20 | 34 | 3.2 | 17.7 | 0.00 | 0.00 | 0.00 | 55 | 1009.2 |
| 20260503231503 | 20 | 25 | 8.0 | 19.3 | 0.00 | 0.00 | 0.00 | 55 | 1009.4 |
| 20260503231002 | 20 | 311 | 4.8 | 19.3 | 0.00 | 0.00 | 0.00 | 56 | 1009.4 |
| 20260503230501 | 20 | 36 | 9.7 | 19.3 | 0.00 | 0.00 | 0.00 | 55 | 1009.5 |
| 20260503230001 | 20 | 38 | 4.8 | 19.3 | 0.00 | 0.00 | 0.00 | 54 | 1009.5 |
| 20260503225600 | 20 | 19 | 6.4 | 17.7 | 0.00 | 0.00 | 0.00 | 55 | 1009.6 |
| 20260503225501 | 20 | 5 | 8.0 | 17.7 | 0.00 | 0.00 | 0.00 | 55 | 1009.6 |
| 20260503225102 | 20 | 12 | 4.8 | 14.5 | 0.00 | 0.00 | 0.00 | 56 | 1009.6 |
| 20260503224600 | 20 | 94 | 4.8 | 17.7 | 0.00 | 0.00 | 0.00 | 56 | 1009.8 |
| 20260503224059 | 20 | 15 | 4.8 | 17.7 | 0.00 | 0.00 | 0.00 | 57 | 1009.9 |
| 20260503223559 | 20 | 9 | 8.0 | 17.7 | 0.00 | 0.00 | 0.00 | 57 | 1010.0 |
| 20260503223058 | 20 | 341 | 4.8 | 16.1 | 0.00 | 0.00 | 0.00 | 56 | 1010.0 |
| 20260503222557 | 20 | 24 | 6.4 | 19.3 | 0.00 | 0.00 | 0.00 | 56 | 1010.0 |
| 20260503222056 | 20 | 34 | 8.0 | 20.9 | 0.00 | 0.00 | 0.00 | 56 | 1010.1 |
| 20260503221556 | 20 | 51 | 8.0 | 20.9 | 0.00 | 0.00 | 0.00 | 55 | 1010.3 |
| 20260503221057 | 20 | 5 | 8.0 | 20.9 | 0.00 | 0.00 | 0.00 | 55 | 1010.3 |
| 20260503220554 | 20 | 355 | 6.4 | 19.3 | 0.00 | 0.00 | 0.00 | 54 | 1010.4 |
| 20260503220056 | 20 | 344 | 8.0 | 19.3 | 0.00 | 0.00 | 0.00 | 53 | 1010.5 |
| 20260503215553 | 20 | 20 | 8.0 | 19.3 | 0.00 | 0.00 | 0.00 | 53 | 1010.5 |
| 20260503215053 | 20 | 23 | 3.2 | 19.3 | 0.00 | 0.00 | 0.00 | 54 | 1010.5 |
| 20260503214557 | 20 | 5 | 9.7 | 16.1 | 0.00 | 0.00 | 0.00 | 54 | 1010.5 |
| 20260503214059 | 20 | 61 | 6.4 | 16.1 | 0.00 | 0.00 | 0.00 | 58 | 1010.5 |
| 20260503213553 | 20 | 19 | 6.4 | 20.9 | 0.00 | 0.00 | 0.00 | 60 | 1010.6 |
| 20260503213123 | 20 | 338 | 6.4 | 20.9 | 0.00 | 0.00 | 0.00 | 60 | 1010.6 |
| 20260503212554 | 20 | 17 | 3.2 | 17.7 | 0.00 | 0.00 | 0.00 | 61 | 1010.6 |
| 20260503212054 | 20 | 344 | 1.6 | 17.7 | 0.00 | 0.00 | 0.00 | 60 | 1010.6 |
| 20260503211617 | 20 | 350 | 8.0 | 17.7 | 0.00 | 0.00 | 0.00 | 61 | 1010.7 |
| 20260503211051 | 20 | 49 | 4.8 | 16.1 | 0.00 | 0.00 | 0.00 | 60 | 1010.7 |
| 20260503210550 | 20 | 360 | 3.2 | 16.1 | 0.00 | 0.00 | 0.00 | 60 | 1010.8 |
| 20260503210050 | 20 | 49 | 6.4 | 16.1 | 0.00 | 0.00 | 0.00 | 58 | 1010.8 |
| 20260503205550 | 21 | 355 | 1.6 | 14.5 | 0.00 | 0.00 | 0.00 | 58 | 1010.9 |
| 20260503205049 | 21 | 51 | 3.2 | 12.9 | 0.00 | 0.00 | 0.00 | 59 | 1010.8 |
| 20260503204602 | 20 | 308 | 0.0 | 17.7 | 0.00 | 0.00 | 0.00 | 60 | 1010.9 |
| 20260503204047 | 20 | 355 | 1.6 | 17.7 | 0.00 | 0.00 | 0.00 | 61 | 1011.0 |
| 20260503203548 | 20 | 341 | 0.0 | 12.9 | 0.00 | 0.00 | 0.00 | 61 | 1011.1 |
| 20260503203049 | 20 | 5 | 0.0 | 11.3 | 0.00 | 0.00 | 0.00 | 62 | 1011.1 |
| 20260503202547 | 20 | 34 | 0.0 | 11.3 | 0.00 | 0.00 | 0.00 | 62 | 1011.1 |
| 20260503202048 | 20 | 11 | 0.0 | 14.5 | 0.00 | 0.00 | 0.00 | 63 | 1011.2 |
| 20260503201545 | 19 | 5 | 3.2 | 14.5 | 0.00 | 0.00 | 0.00 | 65 | 1011.2 |
| 20260503201044 | 20 | 49 | 1.6 | 14.5 | 0.00 | 0.00 | 0.00 | 64 | 1011.3 |
| 20260503200545 | 20 | 342 | 4.8 | 14.5 | 0.00 | 0.00 | 0.00 | 63 | 1011.4 |
| 20260503200044 | 21 | 5 | 3.2 | 12.9 | 0.00 | 0.00 | 0.00 | 61 | 1011.4 |
| 20260503195542 | 20 | 360 | 0.0 | 12.9 | 0.00 | 0.00 | 0.00 | 63 | 1011.5 |
| 20260503195041 | 20 | 26 | 1.6 | 9.7 | 0.00 | 0.00 | 0.00 | 63 | 1011.5 |
| 20260503194541 | 20 | 44 | 3.2 | 11.3 | 0.00 | 0.00 | 0.00 | 65 | 1011.7 |
| 20260503194040 | 19 | 355 | 0.0 | 11.3 | 0.00 | 0.00 | 0.00 | 65 | 1011.7 |
| 20260503193540 | 20 | 31 | 4.8 | 11.3 | 0.00 | 0.00 | 0.00 | 64 | 1011.8 |
| 20260503193040 | 20 | 10 | 3.2 | 11.3 | 0.00 | 0.00 | 0.00 | 64 | 1011.8 |
| 20260503192537 | 20 | 336 | 0.0 | 9.7 | 0.00 | 0.00 | 0.00 | 64 | 1011.9 |
| 20260503192036 | 20 | 355 | 0.0 | 11.3 | 0.00 | 0.00 | 0.00 | 66 | 1011.9 |
| 20260503191553 | 19 | 360 | 1.6 | 11.3 | 0.00 | 0.00 | 0.00 | 65 | 1011.9 |
| 20260503191035 | 19 | 355 | 0.0 | 9.7 | 0.00 | 0.00 | 0.00 | 64 | 1012.0 |
| 20260503190535 | 19 | 348 | 1.6 | 9.7 | 0.00 | 0.00 | 0.00 | 66 | 1012.1 |
| 20260503190037 | 20 | 12 | 0.0 | 0.0 | 0.00 | 0.00 | 0.00 | 66 | 1012.1 |
| 20260503185537 | 19 | 21 | 0.0 | 0.0 | 0.00 | 0.00 | 0.00 | 66 | 1012.2 |
| 20260503185037 | 19 | 14 | 0.0 | 11.3 | 0.00 | 0.00 | 0.00 | 67 | 1012.3 |
| 20260503184534 | 19 | 360 | 0.0 | 11.3 | 0.00 | 0.00 | 0.00 | 66 | 1012.3 |
| 20260503184034 | 19 | 360 | 1.6 | 8.0 | 0.00 | 0.00 | 0.00 | 66 | 1012.3 |
| 20260503183529 | 18 | 5 | 0.0 | 6.4 | 0.00 | 0.00 | 0.00 | 69 | 1012.4 |
| 20260503183039 | 18 | 57 | 0.0 | 8.0 | 0.00 | 0.00 | 0.00 | 69 | 1012.4 |
| 20260503182528 | 18 | 20 | 0.0 | 8.0 | 0.00 | 0.00 | 0.00 | 69 | 1012.5 |
| 20260503182030 | 18 | 12 | 1.6 | 8.0 | 0.00 | 0.00 | 0.00 | 69 | 1012.5 |
| 20260503181527 | 18 | 60 | 1.6 | 9.7 | 0.00 | 0.00 | 0.00 | 70 | 1012.5 |
| 20260503181027 | 18 | 18 | 3.2 | 9.7 | 0.00 | 0.00 | 0.00 | 70 | 1012.5 |
| 20260503180527 | 18 | 11 | 0.0 | 9.7 | 0.00 | 0.00 | 0.00 | 71 | 1012.5 |
| 20260503180031 | 17 | 18 | 4.8 | 12.9 | 0.00 | 0.00 | 0.00 | 71 | 1012.5 |
| 20260503175526 | 17 | 13 | 4.8 | 12.9 | 0.00 | 0.00 | 0.00 | 71 | 1012.5 |
| 20260503175026 | 17 | 26 | 4.8 | 9.7 | 0.00 | 0.00 | 0.00 | 72 | 1012.6 |
| 20260503174536 | 17 | 9 | 4.8 | 12.9 | 0.00 | 0.00 | 0.00 | 73 | 1012.7 |
| 20260503174026 | 17 | 360 | 3.2 | 12.9 | 0.00 | 0.00 | 0.00 | 73 | 1012.7 |
| 20260503173526 | 17 | 323 | 3.2 | 14.5 | 0.00 | 0.00 | 0.00 | 72 | 1012.7 |
| 20260503173026 | 17 | 51 | 6.4 | 14.5 | 0.00 | 0.00 | 0.00 | 72 | 1012.7 |
| 20260503172525 | 17 | 355 | 1.6 | 12.9 | 0.00 | 0.00 | 0.00 | 72 | 1012.8 |
| 20260503172025 | 17 | 10 | 0.0 | 11.3 | 0.00 | 0.00 | 0.00 | 72 | 1012.7 |
| 20260503171529 | 17 | 15 | 4.8 | 11.3 | 0.00 | 0.00 | 0.00 | 72 | 1012.8 |
| 20260503171029 | 17 | 340 | 3.2 | 11.3 | 0.00 | 0.00 | 0.00 | 73 | 1012.8 |
| 20260503170525 | 16 | 116 | 3.2 | 17.7 | 0.00 | 0.00 | 0.00 | 74 | 1012.8 |
| 20260503150526 | 16 | 24 | 0.0 | 0.0 | 0.00 | 0.00 | 0.00 | 75 | 1013.0 |
| 20260503131016 | 15 | 40 | 3.2 | 6.4 | 0.00 | 0.00 | 0.00 | 70 | 1012.5 |
| 20260503130518 | 15 | 94 | 3.2 | 8.0 | 0.00 | 0.00 | 0.00 | 71 | 1012.5 |
| 20260503110511 | 13 | 142 | 0.0 | 3.2 | 0.00 | 0.00 | 0.00 | 81 | 1012.8 |
| 20260503090106 | 14 | 138 | 0.0 | 3.2 | 0.00 | 0.00 | 0.00 | 74 | 1012.9 |
| 20260503081557 | 15 | 138 | 0.0 | 3.2 | 0.00 | 0.00 | 0.00 | 67 | 1012.8 |
| 20260503081049 | 15 | 138 | 0.0 | 4.8 | 0.00 | 0.00 | 0.00 | 66 | 1012.8 |
| 20260503080551 | 15 | 138 | 1.6 | 4.8 | 0.00 | 0.00 | 0.00 | 65 | 1012.8 |
| 20260503072543 | 17 | 116 | 0.0 | 3.2 | 0.00 | 0.00 | 0.00 | 57 | 1012.7 |
| 20260503072041 | 17 | 117 | 0.0 | 3.2 | 0.00 | 0.00 | 0.00 | 59 | 1012.6 |
| 20260503071602 | 17 | 113 | 0.0 | 1.6 | 0.00 | 0.00 | 0.00 | 58 | 1012.7 |
| 20260503071039 | 17 | 113 | 0.0 | 3.2 | 0.00 | 0.00 | 0.00 | 57 | 1012.6 |
| 20260503070538 | 17 | 113 | 0.0 | 3.2 | 0.00 | 0.00 | 0.00 | 59 | 1012.6 |
| 20260503055036 | 19 | 89 | 0.0 | 4.8 | 0.00 | 0.00 | 0.00 | 49 | 1012.5 |
| 20260503054551 | 20 | 89 | 0.0 | 8.0 | 0.00 | 0.00 | 0.00 | 49 | 1012.5 |
| 20260503054034 | 20 | 92 | 1.6 | 8.0 | 0.00 | 0.00 | 0.00 | 49 | 1012.5 |
| 20260503053535 | 20 | 69 | 0.0 | 9.7 | 0.00 | 0.00 | 0.00 | 49 | 1012.5 |
| 20260503053034 | 20 | 44 | 1.6 | 9.7 | 0.00 | 0.00 | 0.00 | 48 | 1012.5 |
| 20260503052533 | 20 | 58 | 0.0 | 6.4 | 0.00 | 0.00 | 0.00 | 49 | 1012.6 |
| 20260503052033 | 20 | 28 | 1.6 | 6.4 | 0.00 | 0.00 | 0.00 | 49 | 1012.7 |
| 20260503051544 | 20 | 76 | 0.0 | 11.3 | 0.00 | 0.00 | 0.00 | 49 | 1012.6 |
| 20260503051037 | 20 | 82 | 1.6 | 11.3 | 0.00 | 0.00 | 0.00 | 49 | 1012.6 |
| 20260503050533 | 20 | 63 | 1.6 | 8.0 | 0.00 | 0.00 | 0.00 | 49 | 1012.6 |
| 20260503050033 | 20 | 59 | 1.6 | 6.4 | 0.00 | 0.00 | 0.00 | 50 | 1012.5 |
| 20260503045532 | 20 | 28 | 0.0 | 6.4 | 0.00 | 0.00 | 0.00 | 50 | 1012.5 |
| 20260503045034 | 20 | 36 | 0.0 | 6.4 | 0.00 | 0.00 | 0.00 | 51 | 1012.5 |
| 20260503044534 | 20 | 84 | 0.0 | 4.8 | 0.00 | 0.00 | 0.00 | 50 | 1012.4 |
| 20260503044032 | 20 | 45 | 0.0 | 8.0 | 0.00 | 0.00 | 0.00 | 50 | 1012.4 |
| 20260503043532 | 20 | 45 | 3.2 | 8.0 | 0.00 | 0.00 | 0.00 | 50 | 1012.3 |
| 20260503043032 | 20 | 5 | 1.6 | 9.7 | 0.00 | 0.00 | 0.00 | 51 | 1012.3 |
| 20260503042530 | 20 | 62 | 3.2 | 9.7 | 0.00 | 0.00 | 0.00 | 51 | 1012.3 |
| 20260503042030 | 19 | 11 | 3.2 | 8.0 | 0.00 | 0.00 | 0.00 | 52 | 1012.2 |
| 20260503041533 | 19 | 324 | 0.0 | 8.0 | 0.00 | 0.00 | 0.00 | 52 | 1012.1 |
| 20260503041030 | 19 | 44 | 3.2 | 8.0 | 0.00 | 0.00 | 0.00 | 53 | 1012.0 |
| 20260503040534 | 19 | 31 | 1.6 | 11.3 | 0.00 | 0.00 | 0.00 | 53 | 1012.1 |
| 20260503040029 | 19 | 344 | 4.8 | 11.3 | 0.00 | 0.00 | 0.00 | 54 | 1011.9 |
| 20260503035533 | 19 | 45 | 4.8 | 11.3 | 0.00 | 0.00 | 0.00 | 55 | 1011.9 |
| 20260503035030 | 19 | 110 | 3.2 | 11.3 | 0.00 | 0.00 | 0.00 | 55 | 1011.8 |
| 20260503034529 | 19 | 91 | 1.6 | 9.7 | 0.00 | 0.00 | 0.00 | 56 | 1011.8 |
| 20260503034029 | 19 | 130 | 3.2 | 14.5 | 0.00 | 0.00 | 0.00 | 56 | 1011.8 |
| 20260503033529 | 19 | 77 | 4.8 | 16.1 | 0.00 | 0.00 | 0.00 | 57 | 1011.7 |
| 20260503033029 | 18 | 39 | 3.2 | 9.7 | 0.00 | 0.00 | 0.00 | 58 | 1011.7 |
| 20260503032527 | 18 | 138 | 3.2 | 11.3 | 0.00 | 0.00 | 0.00 | 60 | 1011.6 |
| 20260503032028 | 18 | 89 | 0.0 | 4.8 | 0.00 | 0.00 | 0.00 | 61 | 1011.7 |
| 20260503031532 | 18 | 126 | 0.0 | 6.4 | 0.00 | 0.00 | 0.00 | 62 | 1011.6 |
| 20260503031028 | 18 | 12 | 0.0 | 6.4 | 0.00 | 0.00 | 0.00 | 62 | 1011.5 |
| 20260503030527 | 18 | 333 | 0.0 | 14.5 | 0.00 | 0.00 | 0.00 | 62 | 1011.5 |
| 20260503030033 | 18 | 348 | 1.6 | 14.5 | 0.00 | 0.00 | 0.00 | 62 | 1011.5 |
| 20260503025527 | 18 | 333 | 3.2 | 16.1 | 0.00 | 0.00 | 0.00 | 61 | 1011.5 |
| 20260503025027 | 18 | 11 | 4.8 | 14.5 | 0.00 | 0.00 | 0.00 | 61 | 1011.5 |
| 20260503024532 | 18 | 19 | 0.0 | 9.7 | 0.00 | 0.00 | 0.00 | 62 | 1011.5 |
| 20260503024027 | 18 | 360 | 0.0 | 12.9 | 0.00 | 0.00 | 0.00 | 62 | 1011.5 |
| 20260503023526 | 18 | 327 | 3.2 | 14.5 | 0.00 | 0.00 | 0.00 | 61 | 1011.5 |
| 20260503023026 | 19 | 56 | 3.2 | 12.9 | 0.00 | 0.00 | 0.00 | 61 | 1011.5 |
| 20260503022525 | 19 | 11 | 3.2 | 14.5 | 0.00 | 0.00 | 0.00 | 62 | 1011.4 |
| 20260503022026 | 18 | 64 | 3.2 | 14.5 | 0.00 | 0.00 | 0.00 | 62 | 1011.5 |
| 20260503021525 | 18 | 355 | 0.0 | 17.7 | 0.00 | 0.00 | 0.00 | 62 | 1011.5 |
| 20260503021026 | 18 | 61 | 4.8 | 16.1 | 0.00 | 0.00 | 0.00 | 62 | 1011.5 |
| 20260503020529 | 18 | 308 | 3.2 | 14.5 | 0.00 | 0.00 | 0.00 | 63 | 1011.6 |
| 20260503020025 | 19 | 331 | 1.6 | 12.9 | 0.00 | 0.00 | 0.00 | 62 | 1011.5 |
| 20260503015525 | 19 | 5 | 4.8 | 14.5 | 0.00 | 0.00 | 0.00 | 61 | 1011.6 |
| 20260503015025 | 20 | 43 | 6.4 | 17.7 | 0.00 | 0.00 | 0.00 | 60 | 1011.7 |
| 20260503014524 | 20 | 351 | 3.2 | 17.7 | 0.00 | 0.00 | 0.00 | 60 | 1011.7 |
| 20260503014024 | 20 | 355 | 4.8 | 12.9 | 0.00 | 0.00 | 0.00 | 59 | 1011.7 |
| 20260503013523 | 20 | 295 | 0.0 | 14.5 | 0.00 | 0.00 | 0.00 | 59 | 1011.7 |
| 20260503013033 | 20 | 348 | 1.6 | 16.1 | 0.00 | 0.00 | 0.00 | 59 | 1011.8 |
| 20260503012525 | 20 | 329 | 8.0 | 16.1 | 0.00 | 0.00 | 0.00 | 58 | 1011.8 |
| 20260503012026 | 20 | 15 | 4.8 | 14.5 | 0.00 | 0.00 | 0.00 | 58 | 1011.8 |
| 20260503011522 | 20 | 13 | 4.8 | 16.1 | 0.00 | 0.00 | 0.00 | 57 | 1011.8 |
| 20260503011025 | 20 | 355 | 3.2 | 16.1 | 0.00 | 0.00 | 0.00 | 57 | 1011.8 |
| 20260503010520 | 20 | 336 | 4.8 | 17.7 | 0.00 | 0.00 | 0.00 | 57 | 1011.8 |
| 20260503010019 | 20 | 53 | 6.4 | 17.7 | 0.00 | 0.00 | 0.00 | 57 | 1011.8 |
| 20260503005518 | 20 | 10 | 4.8 | 16.1 | 0.00 | 0.00 | 0.00 | 56 | 1011.9 |
| 20260503005018 | 20 | 355 | 3.2 | 14.5 | 0.00 | 0.00 | 0.00 | 57 | 1011.9 |
| 20260503004516 | 20 | 325 | 6.4 | 14.5 | 0.00 | 0.00 | 0.00 | 57 | 1012.0 |
| 20260503004016 | 19 | 344 | 1.6 | 16.1 | 0.00 | 0.00 | 0.00 | 58 | 1012.0 |
| 20260503003516 | 19 | 5 | 8.0 | 16.1 | 0.00 | 0.00 | 0.00 | 58 | 1012.0 |
| 20260503003022 | 19 | 325 | 6.4 | 16.1 | 0.00 | 0.00 | 0.00 | 58 | 1012.0 |